[[{"header":{"parameterUnit":"m.s-1","parameterCategory":1,"la1":30.2991,"la2":30.254,"lo1":-89.0895,"lo2":-89.0444,"dy":0.0017,"dx":0.0017,"nx":28,"ny":28,"refTime":"2026-02-24T09:00:00:Z","depth":0,"parameterNumber":2,"parameterNumberName":"U-component_of_WINDS"},"data":[0,0,0,0,0,0,0,0,0,0,0,0,0,0,0,0,0,0,0,0,0,0,0,0,0,0,0,0,0,0,0,0,0,0,0,0,0,0,0,0,0,0,0,0,0,0,0,0,0,0,0,0,0,0,0,0,0,0,0.4384,0.4384,0,0.4427,0.4427,0.4428,0.4434,0.4433,0.4433,0.4433,0.4475,0.4477,0.4478,0,0,0,0,0,0,0,0,0,0,0,0,0,0.4305,0.4307,0.4384,0.4384,0.4385,0.4427,0.4427,0.4428,0.4434,0.4433,0.4433,0.4433,0.4475,0.4476,0.4478,0,0,0,0,0,0,0,0,0,0,0,0,0,0.4343,0.4307,0.4384,0.4393,0.4394,0.4426,0.4427,0.4428,0.4434,0.4433,0.4433,0.4432,0.4474,0.4476,0.4479,0.4504,0,0,0.4485,0.4486,0,0,0,0,0,0,0,0,0.4341,0.4346,0.4391,0.4392,0.4394,0.4424,0.4415,0.4453,0.4434,0.4419,0.4433,0.4432,0.4459,0.4462,0.4471,0.4506,0.4508,0.4486,0.4487,0.4488,0.4489,0,0,0,0,0,0,0,0.4338,0.4344,0.4401,0.4392,0.4393,0.4394,0.4399,0.4422,0.4441,0.442,0.4421,0.4426,0.4459,0.4469,0.4472,0.4508,0.4486,0.4488,0.4489,0.449,0.4565,0.4565,0,0,0,0,0,0,0.4334,0.4342,0.4399,0.4402,0.4365,0.4396,0.4401,0.4415,0.4441,0.4445,0.4426,0.4426,0.4466,0.447,0.4474,0.4505,0.4488,0.449,0.4491,0.4564,0.4565,0.4565,0,0,0,0,0,0,0.4332,0.4339,0.4398,0.4372,0.4379,0.4398,0.4413,0.4416,0.4426,0.4446,0.4449,0.4433,0.4465,0.4471,0.4496,0.4506,0.4491,0.4493,0.4563,0.4564,0.4565,0.4567,0,0,0,0,0,0,0.433,0.4338,0.4349,0.4372,0.4381,0.442,0.4414,0.4418,0.443,0.443,0.4453,0.4456,0.4465,0.4493,0.4498,0.4509,0.4495,0.4562,0.4564,0.4565,0.4566,0.4568,0.457,0,0,0,0,0,0.4327,0.4348,0.4349,0.4356,0.4394,0.4421,0.4425,0.4436,0.4431,0.4441,0.4454,0.4456,0.4504,0.4495,0.4502,0.4513,0.4562,0.4563,0.4565,0.4566,0.4568,0.457,0,0,0,0,0,0,0.4325,0.4351,0.4353,0.4382,0.4399,0.4422,0.4435,0.4438,0.4456,0.4456,0.4467,0.4472,0.4497,0.4508,0.4497,0.4539,0.4533,0.4535,0.4531,0.4533,0.4535,0.4532,0.4497,0,0,0,0,0,0.4328,0.4347,0.4369,0.4392,0.4401,0.4416,0.4428,0.4434,0.4452,0.446,0.4474,0.4491,0.451,0.4522,0.4541,0.4568,0.4572,0.4579,0.458,0.4581,0.4584,0.4598,0.4601,0.457,0.457,0.457,0,0,0.4334,0.4351,0.4362,0.4392,0.4406,0.4425,0.4422,0.4443,0.4457,0.4463,0.4488,0.4498,0.4518,0.4544,0.4556,0.4554,0.4593,0.4583,0.4584,0.4586,0.46,0.4603,0.4605,0.4571,0.4571,0.4571,0,0,0.4355,0.437,0.4391,0.4405,0.4426,0.4436,0.4441,0.4463,0.447,0.4495,0.4499,0.4516,0.4549,0.4562,0.4573,0.4598,0.46,0.4604,0.4612,0.4626,0.4628,0.4631,0.4639,0.4642,0.4606,0.4606,0.4606,0,0.436,0.439,0.4401,0.4421,0.4434,0.444,0.446,0.4473,0.4499,0.4507,0.4504,0.4544,0.4558,0.4587,0.4593,0.4602,0.4607,0.4601,0.4627,0.463,0.4632,0.464,0.4643,0.4606,0.4606,0.4606,0.4606,0,0.4394,0.4415,0.4429,0.4454,0.4468,0.4489,0.4502,0.4515,0.4519,0.4529,0.4554,0.4571,0.4592,0.4599,0.4604,0.4629,0.4626,0.4625,0.4619,0.4635,0.4642,0.4646,0.4606,0.4606,0.4606,0.4606,0,0,0.4416,0.4446,0.4451,0.4463,0.4486,0.4502,0.4521,0.4543,0.4553,0.4571,0.4587,0.4614,0.4613,0.4625,0.4632,0.4644,0.4661,0.4641,0.4641,0.4644,0.4688,0.4689,0.4692,0.4663,0.4663,0.4664,0.4686,0,0.444,0.4477,0.4486,0.4517,0.4536,0.4541,0.4558,0.4574,0.4583,0.46,0.461,0.4629,0.4626,0.4633,0.4645,0.4657,0.467,0.4655,0.4677,0.4678,0.4673,0.4697,0.4698,0.4718,0.4689,0.469,0.469,0,0.4472,0.4491,0.4523,0.4544,0.4552,0.4567,0.4587,0.4603,0.462,0.4626,0.464,0.4645,0.4665,0.4657,0.4684,0.4674,0.4683,0.469,0.4691,0.4694,0.4685,0.4699,0.4725,0.4728,0.4695,0.4695,0.4695,0,0.4484,0.4517,0.4541,0.455,0.4574,0.4585,0.4595,0.4612,0.4624,0.4641,0.4648,0.4667,0.4678,0.4692,0.4701,0.4695,0.4727,0.4721,0.4732,0.4732,0.4739,0.4738,0.4767,0.4745,0.4745,0.4745,0.4745,0,0.451,0.4529,0.4546,0.4561,0.4583,0.4593,0.4614,0.4625,0.4639,0.4655,0.466,0.4675,0.4687,0.4703,0.471,0.4731,0.4735,0.474,0.4742,0.474,0.4739,0.4746,0.4745,0.4746,0.4746,0.4746,0.4745,0,0.4527,0.4539,0.4565,0.4586,0.4591,0.4606,0.4624,0.4637,0.4647,0.4667,0.4672,0.4686,0.4705,0.4716,0.474,0.4744,0.4768,0.4769,0.4762,0.4763,0.4773,0.4772,0.4807,0.4812,0.4787,0.4788,0.4788,0,0.4542,0.4558,0.458,0.4591,0.4602,0.462,0.4632,0.4642,0.4655,0.4675,0.4686,0.4705,0.4721,0.4751,0.4763,0.4781,0.4782,0.4793,0.4785,0.4782,0.4782,0.4781,0.4782,0.4795,0.4795,0.4795,0.4795,0,0.4568,0.4573,0.4591,0.4611,0.4625,0.4641,0.4656,0.4665,0.4678,0.4691,0.4711,0.4723,0.4747,0.4766,0.4784,0.4794,0.4796,0.4797,0.4801,0.4799,0.4794,0.4797,0.4766,0.4797,0.4797,0.4796,0.4796,0.4796,0.4585,0.4598,0.4616,0.4635,0.4648,0.4662,0.4676,0.4687,0.4704,0.4724,0.4729,0.475,0.4765,0.479,0.48,0.4816,0.4814,0.4819,0.482,0.4821,0.4822,0.4792,0.4819,0.4819,0.4819,0.4819,0.4819,0,0.461,0.4622,0.464,0.4661,0.4676,0.4677,0.4694,0.4706,0.4725,0.4739,0.4755,0.4777,0.4794,0.4808,0.4826,0.4835,0.4837,0.484,0.4839,0.4841,0.4823,0.4818,0.4838,0.4838,0.4838,0.4838,0.4838,0.4838,0.4626,0.4649,0.4656,0.4684,0.4695,0.4716,0.4725,0.4738,0.475,0.4774,0.4789,0.4798,0.4812,0.483,0.4846,0.485,0.4856,0.4859,0.4862,0.4844,0.4842,0.4841,0.4836,0.486,0.486,0.4879,0.4879,0.4879]},{"header":{"parameterUnit":"m.s-1","parameterCategory":1,"la1":30.2991,"la2":30.254,"lo1":-89.0895,"lo2":-89.0444,"dy":0.0017,"dx":0.0017,"nx":28,"ny":28,"refTime":"2026-02-24T09:00:00:Z","depth":0,"parameterNumber":3,"parameterNumberName":"V-component_of_WINDS"},"data":[0,0,0,0,0,0,0,0,0,0,0,0,0,0,0,0,0,0,0,0,0,0,0,0,0,0,0,0,0,0,0,0,0,0,0,0,0,0,0,0,0,0,0,0,0,0,0,0,0,0,0,0,0,0,0,0,0,0,4.4608,4.4608,0,4.4618,4.4618,4.4618,4.4614,4.4614,4.4613,4.4613,4.4622,4.4622,4.4623,0,0,0,0,0,0,0,0,0,0,0,0,0,4.4583,4.4584,4.4608,4.4608,4.4608,4.4618,4.4618,4.4618,4.4614,4.4614,4.4613,4.4613,4.4622,4.4622,4.4623,0,0,0,0,0,0,0,0,0,0,0,0,0,4.4594,4.4584,4.4608,4.4607,4.4607,4.4618,4.4618,4.4618,4.4614,4.4614,4.4613,4.4613,4.4622,4.4622,4.4623,4.4635,0,0,4.4625,4.4625,0,0,0,0,0,0,0,0,4.4593,4.4595,4.4607,4.4607,4.4607,4.4614,4.4613,4.4624,4.4614,4.4611,4.4613,4.4613,4.462,4.462,4.4623,4.4635,4.4635,4.4625,4.4626,4.4626,4.4626,0,0,0,0,0,0,0,4.4592,4.4594,4.4612,4.4607,4.4607,4.4606,4.4607,4.4615,4.4617,4.4612,4.4611,4.4613,4.462,4.4622,4.4623,4.4635,4.4625,4.4626,4.4626,4.4627,4.4657,4.4658,0,0,0,0,0,0,4.4592,4.4594,4.4611,4.4612,4.4599,4.4607,4.4608,4.4612,4.4617,4.4618,4.4613,4.4612,4.4621,4.4622,4.4624,4.4638,4.4626,4.4627,4.4627,4.4657,4.4658,4.4658,0,0,0,0,0,0,4.4591,4.4594,4.4611,4.4603,4.4605,4.4607,4.4613,4.4613,4.4616,4.4618,4.4619,4.4615,4.4621,4.4623,4.4632,4.4638,4.4627,4.4628,4.4657,4.4657,4.4658,4.4665,0,0,0,0,0,0,4.4591,4.4593,4.4598,4.4603,4.4605,4.462,4.4613,4.4613,4.4617,4.4616,4.4621,4.4621,4.4621,4.4631,4.4633,4.4639,4.4628,4.4656,4.4657,4.4658,4.4665,4.4666,4.4668,0,0,0,0,0,4.459,4.4599,4.4598,4.46,4.4611,4.462,4.4621,4.4621,4.4617,4.4622,4.4624,4.4621,4.4637,4.4632,4.4634,4.464,4.4656,4.4657,4.4657,4.4664,4.4666,4.4668,0,0,0,0,0,0,4.4594,4.46,4.4599,4.461,4.4615,4.4619,4.4625,4.4623,4.4629,4.4628,4.4627,4.4628,4.4638,4.464,4.4634,4.4652,4.4646,4.4647,4.465,4.4652,4.4653,4.4653,4.4629,0,0,0,0,0,4.4597,4.4604,4.4608,4.4618,4.462,4.4622,4.4626,4.4626,4.463,4.4632,4.4634,4.4638,4.4644,4.4648,4.4654,4.4665,4.4666,4.467,4.4672,4.4673,4.4674,4.468,4.4682,4.4661,4.4661,4.4661,0,0,4.4601,4.4605,4.461,4.4619,4.4622,4.4629,4.4624,4.4631,4.4636,4.4633,4.4642,4.4644,4.4648,4.4659,4.4664,4.4661,4.468,4.4674,4.4675,4.4675,4.4681,4.4683,4.4685,4.4662,4.4661,4.4661,0,0,4.4614,4.4618,4.4626,4.463,4.4636,4.4637,4.4639,4.4644,4.4646,4.4655,4.4653,4.4658,4.4669,4.4672,4.4675,4.4689,4.4687,4.4691,4.4699,4.4705,4.4707,4.4708,4.4713,4.4715,4.4692,4.4692,4.4692,0,4.4619,4.463,4.4631,4.4639,4.4643,4.4641,4.4649,4.4653,4.466,4.4662,4.4659,4.4672,4.4675,4.4686,4.469,4.4692,4.4695,4.4691,4.4706,4.4708,4.4709,4.4714,4.4716,4.4693,4.4693,4.4693,4.4693,0,4.4636,4.4644,4.465,4.4658,4.4662,4.4671,4.4672,4.4677,4.4676,4.4678,4.4688,4.4691,4.4697,4.47,4.4699,4.4712,4.471,4.4706,4.47,4.4712,4.4716,4.4718,4.4693,4.4693,4.4693,4.4693,0,0,4.4651,4.466,4.4662,4.4666,4.4672,4.4678,4.4686,4.4693,4.4697,4.4701,4.4708,4.4717,4.4714,4.4718,4.4718,4.4723,4.4734,4.4719,4.4719,4.4722,4.4748,4.4751,4.4753,4.4733,4.4733,4.4734,4.4748,0,4.4664,4.4679,4.4681,4.4694,4.4701,4.4699,4.4706,4.4711,4.4713,4.4719,4.472,4.4727,4.4723,4.4725,4.473,4.4732,4.474,4.4731,4.4739,4.4739,4.4738,4.4755,4.4758,4.4771,4.475,4.475,4.475,0,4.4681,4.4688,4.4702,4.4708,4.4711,4.4717,4.4724,4.473,4.4735,4.4736,4.474,4.4739,4.4747,4.4741,4.4752,4.4746,4.475,4.4751,4.4751,4.4752,4.4745,4.4757,4.4775,4.4777,4.4753,4.4753,4.4753,0,4.4691,4.4703,4.4714,4.4717,4.4724,4.4728,4.4731,4.4736,4.474,4.4746,4.4748,4.4755,4.4758,4.4763,4.4764,4.4759,4.4775,4.4769,4.4776,4.4776,4.4779,4.4779,4.4798,4.4781,4.4781,4.4781,4.4781,0,4.4706,4.4715,4.4718,4.4724,4.4734,4.4735,4.4745,4.4748,4.4752,4.4758,4.4757,4.4763,4.4764,4.477,4.477,4.4779,4.4781,4.4782,4.4782,4.4782,4.4782,4.4784,4.4783,4.4781,4.4781,4.4781,4.4781,0,4.4718,4.4721,4.4732,4.4738,4.474,4.4747,4.4752,4.4758,4.476,4.4768,4.477,4.4773,4.478,4.4781,4.4789,4.479,4.4801,4.48,4.4799,4.4799,4.4806,4.4806,4.4828,4.4831,4.4812,4.4812,4.4812,0,4.4728,4.4734,4.4742,4.4746,4.475,4.4757,4.4762,4.4763,4.4768,4.4774,4.4779,4.4786,4.4792,4.4804,4.4806,4.4813,4.4812,4.4819,4.4813,4.4813,4.4812,4.4812,4.4813,4.4821,4.4821,4.4821,4.4821,0,4.4744,4.4745,4.4752,4.4759,4.4765,4.4771,4.4777,4.478,4.4782,4.4788,4.4795,4.48,4.4809,4.4816,4.4822,4.4825,4.4823,4.4823,4.4825,4.4825,4.4825,4.4826,4.4803,4.4823,4.4822,4.4822,4.4822,4.4822,4.4755,4.4761,4.4767,4.4775,4.478,4.4785,4.4791,4.4794,4.4801,4.4809,4.4809,4.4817,4.4822,4.4831,4.4834,4.484,4.4838,4.4841,4.4841,4.4842,4.4843,4.4824,4.4841,4.4841,4.4841,4.4841,4.4841,0,4.4771,4.4775,4.4782,4.4791,4.4797,4.4796,4.4802,4.4807,4.4815,4.482,4.4826,4.4835,4.4842,4.4845,4.4852,4.4856,4.4856,4.4858,4.4858,4.4858,4.4845,4.4842,4.4858,4.4858,4.4858,4.4858,4.4858,4.4858,4.478,4.4791,4.4793,4.4806,4.481,4.4818,4.4822,4.4827,4.4831,4.4842,4.4848,4.485,4.4854,4.4862,4.4868,4.4869,4.4871,4.4874,4.4874,4.4861,4.4859,4.4858,4.4856,4.4874,4.4874,4.4888,4.4888,4.4888]}]]